Location: Unspecified
(0.0000°N, 0.0000°E)
Time: 06:13:31
(UTC+00:00)

Tiangong - Pass Details

Date: 10 August 2022
Orbit: 381 x 385 km, 41.5° (Epoch: 13 August)

Event Time Altitude Azimuth Distance (km) Brightness Sun altitude
Rises 19:39:05 0° 244° (WSW) 2,244 2.4 -22.5°
Reaches altitude 10° 19:41:21 10° 257° (WSW) 1,389 1.5 -23.1°
Maximum altitude 19:44:02 26° 316° (NW) 786 0.0 -23.7°
Enters shadow 19:44:28 25° 331° (NNW) 807 -0.1 -23.8°
